Location: Hiram
(41.3130°N, 81.1440°W)
Time: 05:32:06
(UTC-04:00)

Daily predictions for brighter satellites

Satellite Brightness Start Highest point End
(mag) Time Altitude Azimuth Time Altitude Azimuth Time Altitude Azimuth
Lacrosse 5 3.5 00:00:04 10° NW 00:02:40 28° WNW 00:02:40 28° WNW
CZ-2C R/B 3.4 00:02:40 10° NNE 00:06:35 49° N 00:06:35 49° N
Cosmos 2369 Rocket 3.5 00:03:28 10° NW 00:07:34 31° W 00:07:34 31° W
CZ-4C R/B 4.5 00:05:14 10° W 00:09:28 22° NW 00:14:13 10° NNE
H-2A R/B 4.4 00:14:36 20° NNE 00:14:36 20° NNE 00:16:27 10° N
USA 234 3.7 00:20:54 49° ENE 00:21:44 52° NNE 00:28:02 10° NW
ATLAS 5 CENTAUR R/B 3.6 00:17:54 10° NW 00:22:00 33° W 00:22:00 33° W
SeaSat 1 4.3 00:35:48 25° NNE 00:35:48 25° NNE 00:38:53 10° N
Mayak 1.5 00:34:02 10° NNE 00:34:50 15° NNE 00:34:50 15° NNE
Lacrosse 4 Rocket 4.4 00:44:53 10° NNE 00:46:10 12° NE 00:46:10 12° NE
ADEOS Rocket 3.5 01:32:11 10° N 01:37:36 58° NNW 01:37:36 58° NNW
Cosmos 1980 Rocket 3.9 01:48:04 10° N 01:52:42 26° NE 01:53:21 25° ENE
Cosmos 1697 Rocket 3.8 01:48:06 10° NNW 01:52:32 39° NE 01:52:32 39° NE
Cosmos 2082 Rocket 3.3 02:09:34 40° NE 02:09:34 40° NE 02:13:14 10° NNE
Lacrosse 5 rocket 4.0 02:14:51 18° NNE 02:14:51 18° NNE 02:16:03 10° NE
Mayak 1.7 02:11:10 10° NNW 02:11:28 11° NW 02:11:28 11° NW
Cosmos 2034 Rocket 4.3 02:26:42 62° N 02:26:42 62° N 02:31:51 10° N
Lacrosse 4 Rocket 4.1 02:21:29 10° NNW 02:22:28 16° NNW 02:22:28 16° NNW
Cosmos 1092 Rocket 4.3 02:26:10 10° N 02:32:05 59° ENE 02:32:05 59° ENE
Cosmos 1833 Rocket 3.4 02:35:53 51° N 02:35:53 51° N 02:40:10 10° NNE
Cosmos 44 4.4 02:57:50 10° NNW 03:02:51 45° NE 03:04:20 36° E
CZ-2D R/B 2.9 02:58:21 10° NNE 03:03:15 42° E 03:03:15 42° E
Cosmos 1898 Rocket 4.0 03:00:01 10° NNW 03:04:42 58° NE 03:04:42 58° NE
Cosmos 1937 Rocket 4.2 03:04:06 10° N 03:09:06 47° ENE 03:09:38 45° E
SL-16 R/B 2.7 03:11:16 56° SE 03:12:30 69° ENE 03:18:44 10° N
USA 238 DEB 3.9 03:12:04 53° SE 03:12:39 55° ESE 03:19:23 10° NE
USA 238 4.0 03:12:10 53° SE 03:12:45 54° ESE 03:19:29 10° NE
Cosmos 2208 Rocket 4.3 03:16:00 62° N 03:16:00 62° N 03:20:27 10° NNE
IRS-1C 4.5 03:12:01 10° NNE 03:17:15 57° E 03:17:15 57° E
SL-08 R/B 3.8 03:18:15 61° NNE 03:18:15 61° NNE 03:22:28 10° N
Cosmos 990 Rocket 4.4 03:12:34 10° N 03:17:39 56° ENE 03:18:02 54° E
Cosmos 468 Rocket 4.1 03:20:22 72° NNE 03:20:22 72° NNE 03:25:09 10° NNE
Cosmos 1634 Rocket 3.9 03:22:05 73° W 03:22:08 73° W 03:28:25 10° N
Cosmos 1570 Rocket 4.5 03:24:17 53° NW 03:24:17 53° NW 03:28:52 10° NNE
Resurs 1-4 Rocket 2.2 03:20:15 10° NNE 03:25:27 69° E 03:25:27 69° E
Cosmos 1066 Rocket 4.1 03:26:28 76° NNW 03:26:28 76° NNW 03:31:31 10° N
Cosmos 2279 Rocket 4.0 03:29:32 65° SSE 03:30:28 79° E 03:36:45 10° N
ARIANE 5 R/B 3.1 03:27:43 10° NNE 03:32:48 50° E 03:33:28 47° SE
Cosmos 1814 Rocket 4.0 03:34:01 71° E 03:34:01 71° E 03:39:08 10° NNE
Cosmos 2360 Rocket 4.4 03:29:38 10° N 03:34:09 24° NE 03:38:38 10° ESE
AQUA 4.0 03:29:27 10° N 03:33:36 67° N 03:33:36 67° N
Cosmos 1980 Rocket 3.1 03:31:33 10° NW 03:35:04 35° WNW 03:35:04 35° WNW
Cosmos 2026 Rocket 3.9 03:31:58 10° NNW 03:38:18 68° W 03:38:44 66° WSW
Spot 4 Rocket 4.2 03:37:29 10° NNE 03:42:37 63° ESE 03:43:15 58° SE
IRS-P3 4.3 03:41:59 10° N 03:47:13 57° WNW 03:47:15 57° WNW
H-2A R/B 3.3 03:43:44 10° N 03:47:06 44° NW 03:47:06 44° NW
Cosmos 44 Rocket 3.6 03:44:08 10° NNW 03:49:18 73° ENE 03:53:11 18° SE
NOSS 3-2 (C) 4.3 03:48:15 32° SSE 03:50:00 39° ESE 03:55:51 10° NE
ATLAS 3B R/B 2.7 03:48:15 53° SSW 03:50:10 82° ESE 03:57:08 10° NE
Lacrosse 5 rocket 3.9 03:50:30 12° NW 03:51:55 14° NNW 03:54:09 10° N
Cosmos 2082 Rocket 3.8 03:51:24 20° WNW 03:52:13 21° NW 03:56:24 10° N
Cosmos 841 Rocket 3.4 03:54:06 69° S 03:54:42 80° ESE 03:59:56 10° NNE
Cosmos 540 Rocket 4.2 03:53:58 36° SE 03:55:21 45° ESE 04:00:15 10° NNE
SL-16 R/B 2.2 03:50:01 10° NNW 03:55:44 80° ENE 03:59:31 22° SSE
Cosmos 2150 Rocket 4.0 03:50:40 10° NNW 03:56:11 89° E 03:57:55 45° SSE
ATLAS CENTAUR R/B 3.5 03:53:43 10° NNW 03:57:36 29° NE 04:01:41 10° ESE
NPP 4.2 03:55:03 10° N 04:00:04 41° WNW 04:00:20 40° WNW
Cosmos 1726 Rocket 4.2 03:59:29 10° NNW 04:02:42 43° NW 04:02:42 43° NW
NOSS 3-2 (A) 3.5 04:02:16 47° S 04:03:57 69° ESE 04:10:24 10° NE
Cosmos 2298 Rocket 3.9 03:59:40 10° NNW 04:04:58 68° WSW 04:05:38 61° SSW
DNEPR-1 R/B 3.5 04:05:15 69° SE 04:05:26 70° ESE 04:09:59 10° NE
Meteor 1-21 4.1 04:05:21 51° SSW 04:06:51 88° W 04:12:29 10° N
IRS-1D 3.6 04:02:02 10° N 04:07:11 61° WNW 04:07:56 55° WSW
CENTAUR R/B 4.3 04:03:27 12° SSE 04:07:17 22° ESE 04:12:06 10° ENE
Cosmos 2322 Rocket 2.0 04:02:38 10° NNW 04:08:19 86° WSW 04:12:13 21° SSE
Cosmos 1758 3.9 04:06:25 10° N 04:10:20 53° E 04:11:41 35° SE
Cosmos 2228 3.3 04:09:53 10° NNW 04:13:29 50° WNW 04:13:29 50° WNW
Cosmos 2266 Rocket 4.0 04:08:29 10° N 04:14:37 79° E 04:19:33 17° SSE
Cosmos 1763 Rocket 3.9 04:16:30 42° W 04:17:19 46° WNW 04:22:27 10° N
BREEZE-M R/B 3.0 04:19:05 49° NW 04:19:21 51° NNW 04:24:15 10° NE
UNKNOWN OBJECT B 2.6 04:16:36 10° NNE 04:20:25 78° E 04:20:49 67° SSE
Cosmos 1470 3.8 04:18:13 10° N 04:22:03 44° ENE 04:25:14 14° SSE
MOZ.5/SAFIR/RUBIN 5/SL-8 4.1 04:22:30 44° W 04:22:30 44° W 04:26:55 10° NNW
Timation 2 Rocket 4.2 04:21:50 38° WSW 04:23:39 51° WNW 04:29:28 10° NNE
Cosmos 1602 Rocket 3.6 04:26:34 39° S 04:28:07 76° E 04:32:26 10° N
Cosmos 1707 3.9 04:26:46 20° SSE 04:28:56 39° E 04:32:36 10° NNE
Cosmos 292 Rocket 3.8 04:27:54 47° WSW 04:28:59 61° WNW 04:33:45 10° NNE
Aureole 2 Rocket 3.0 04:27:18 10° NNW 04:31:00 60° ENE 04:33:55 14° SSE
Cosmos 2058 Rocket 3.8 04:31:36 10° NNW 04:35:32 35° W 04:35:32 35° W
ADEOS 3.5 04:31:29 10° N 04:36:43 75° WNW 04:39:10 32° SSW
Cosmos 1842 4.1 04:37:01 33° WNW 04:37:01 33° WNW 04:40:32 10° N
SJ 16-02 1.3 04:33:40 10° NNW 04:38:07 87° E 04:42:32 10° SSE
Cosmos 1626 Rocket 3.4 04:37:26 42° SSW 04:38:48 72° W 04:43:09 10° N
ERBS 2.1 04:39:43 69° WSW 04:40:04 84° NW 04:43:29 10° NE
ADEOS II 2.2 04:37:27 10° NNE 04:42:44 77° ESE 04:46:33 19° S
CZ-2D R/B 3.3 04:38:55 10° N 04:43:13 25° WNW 04:44:34 23° W
Helios 1A Rocket 3.4 04:39:28 10° N 04:43:27 43° WNW 04:44:18 38° WSW
PSLV R/B 2.7 04:49:20 68° SSW 04:49:32 72° S 04:52:30 10° E
Gblst 52 Del rocket 4.3 04:45:21 10° WNW 04:51:14 77° SW 04:57:58 10° SE
BREEZE-M DEB 4.3 04:55:41 36° SE 04:55:41 36° SE 04:57:52 10° ENE
SL-16 R/B 3.9 04:56:20 19° W 04:56:37 19° W 05:00:52 10° NW
Cosmos 2322 3.9 04:52:02 10° NNW 04:57:46 78° ENE 05:03:29 10° SSE
Cosmos 1125 Rocket 3.4 04:54:52 10° NNW 05:00:09 71° WSW 05:05:24 10° S
Cosmos 2237 4.4 04:54:36 10° NNW 05:00:21 78° ENE 05:06:04 10° SSE
CZ-4B R/B 4.3 04:59:58 10° NNE 05:03:47 37° E 05:07:24 10° SSE
Resurs 1-4 Rocket 3.8 05:01:36 10° NNW 05:04:45 16° WNW 05:06:32 14° W
Cosmos 372 Rocket 4.0 04:59:58 10° NNW 05:05:06 58° WSW 05:10:09 10° S
CZ-2D R/B 4.5 05:04:54 10° N 05:08:30 29° WNW 05:10:08 22° WSW
Cosmos 1733 4.0 05:06:31 10° NNW 05:09:59 32° W 05:11:30 24° SW
ARIANE 5 R/B 4.0 05:07:38 10° NNW 05:11:33 22° WNW 05:13:48 16° W
BREEZE-M DEB (TANK) 1.4 05:12:32 36° WSW 05:13:16 78° NNW 05:15:44 10° ENE
Cosmos 1953 3.1 05:13:27 10° NNW 05:17:04 31° W 05:19:20 18° SW
Cosmos 1400 Rocket 3.9 05:13:51 10° SSE 05:17:37 46° E 05:21:27 10° NNE
Cosmos 2360 Rocket 2.3 05:12:59 10° NNW 05:18:27 53° WSW 05:23:53 10° S
Cosmos 1825 Rocket 3.5 05:25:01 10° SSW 05:29:17 65° W 05:33:36 10° N
Cosmos 2219 3.6 05:28:26 10° S 05:34:04 67° ESE 05:39:47 10° NNE
Cosmos 1553 Rocket 4.1 05:28:27 10° S 05:34:52 82° W 05:41:18 10° N
ATLAS CENTAUR R/B 2.2 05:32:32 10° NW 05:36:37 34° WSW 05:40:53 10° S
ATLAS 5 CENTAUR R/B 4.4 05:31:08 11° SW 05:38:21 17° SSW 05:42:38 10° SSE
SL-16 R/B 3.8 05:36:21 10° WNW 05:39:02 14° W 05:41:13 11° WSW
NOSS 3-2 (C) 4.2 05:35:41 12° WSW 05:40:50 40° NW 05:47:05 10° NNE
ATLAS 3B R/B 4.0 05:35:47 10° W 05:41:36 26° NW 05:47:15 10° NNE
MOS 1-B 4.4 05:36:17 10° NNE 05:42:07 78° WNW 05:47:55 10° SSW
Cosmos 2219 Rocket 2.6 05:37:24 10° NNW 05:43:00 71° ENE 05:48:34 10° SSE
PSLV R/B 3.7 05:38:56 10° N 05:43:01 51° WNW 05:47:04 10° SSW
Okean O Rocket 2.0 05:41:56 10° NNE 05:46:17 66° ESE 05:50:34 10° S
Cosmos 2333 Rocket 2.7 05:40:39 10° NNW 05:46:19 66° ENE 05:51:57 10° SSE
Cosmos 2227 Rocket 3.9 05:41:33 10° SSE 05:46:33 34° ESE 05:51:34 10° NE
Cosmos 489 Rocket 4.5 05:42:22 10° NNW 05:48:40 72° WSW 05:54:59 10° S
Cosmos 2297 Rocket 4.0 05:43:48 10° SSE 05:48:41 31° ESE 05:53:36 10° NE
Cosmos 2333 4.2 05:43:36 10° NNW 05:49:10 69° WSW 05:54:45 10° SSE
Meteor 2-5 Rocket 3.8 05:44:16 10° SSW 05:49:42 57° WNW 05:55:14 10° N
COSMOS 2428 2.7 05:45:43 10° NNW 05:51:22 70° WSW 05:56:59 10° SSE
Cosmos 2322 Rocket 3.9 05:50:18 10° W 05:51:24 11° W 05:52:30 10° WSW
Cosmos 2237 Rocket 3.7 05:46:08 10° N 05:51:30 42° ENE 05:56:52 10° SE
CENTAUR R/B 2.7 05:51:14 10° SW 05:57:09 64° NW 06:04:01 10° NNE
Cosmos 1953 Rocket 4.0 05:53:48 10° SSW 05:58:05 45° WNW 06:02:21 10° N
Cosmos 192 4.5 05:53:18 10° SSW 05:58:08 58° WNW 06:02:59 10° NNE
Cosmos 1538 Rocket 4.0 05:54:21 10° SSW 05:59:30 81° WNW 06:04:42 10° NNE
Meteor 1-24 Rocket 3.6 05:56:38 10° SSW 06:01:53 69° W 06:07:17 10° N
USA 215 3.3 05:55:45 10° NE 06:02:19 84° NW 06:08:51 10° SW
